Time,TemperatureF,DewpointF,PressureIn,WindDirection,WindDirectionDegrees,WindSpeedMPH,WindSpeedGustMPH,Humidity,HourlyPrecipIn,Conditions,Clouds,dailyrainin,SoftwareType,DateUTC
2013-04-21 00:02:00,49.0,46.0,30.19,ESE,117,0.0,0.0,90,0.00,,,0.00,,2013-04-21 05:02:00,
2013-04-21 00:12:00,49.0,46.0,30.19,ESE,117,0.0,0.0,90,0.00,,,0.00,,2013-04-21 05:12:00,
2013-04-21 00:22:00,48.0,45.0,30.19,ESE,118,0.0,0.0,90,0.00,,,0.00,,2013-04-21 05:22:00,
2013-04-21 00:32:00,48.0,45.0,30.19,ESE,118,0.0,0.0,91,0.00,,,0.00,,2013-04-21 05:32:00,
2013-04-21 00:42:00,48.0,45.0,30.19,ESE,118,0.0,0.0,91,0.00,,,0.00,,2013-04-21 05:42:00,
2013-04-21 00:52:00,48.0,45.0,30.19,ESE,117,0.0,0.0,91,0.00,,,0.00,,2013-04-21 05:52:00,
2013-04-21 01:01:00,48.0,46.0,30.19,ESE,117,0.0,0.0,92,0.00,,,0.00,,2013-04-21 06:01:00,
2013-04-21 01:12:00,48.0,46.0,30.19,ESE,117,0.0,0.0,92,0.00,,,0.00,,2013-04-21 06:12:00,
2013-04-21 01:21:00,47.0,45.0,30.19,ESE,117,0.0,0.0,92,0.00,,,0.00,,2013-04-21 06:21:00,
2013-04-21 01:32:00,47.0,45.0,30.18,ESE,117,0.0,0.0,92,0.00,,,0.00,,2013-04-21 06:32:00,
2013-04-21 01:42:00,47.0,45.0,30.18,ESE,117,0.0,0.0,92,0.00,,,0.00,,2013-04-21 06:42:00,
2013-04-21 01:52:00,47.0,45.0,30.19,ESE,117,0.0,0.0,92,0.00,,,0.00,,2013-04-21 06:52:00,
2013-04-21 02:01:00,47.0,45.0,30.19,ESE,117,0.0,0.0,93,0.00,,,0.00,,2013-04-21 07:01:00,
2013-04-21 02:12:00,46.0,44.0,30.17,ESE,117,0.0,0.0,93,0.00,,,0.00,,2013-04-21 07:12:00,
2013-04-21 02:21:00,46.0,44.0,30.17,ESE,117,0.0,0.0,93,0.00,,,0.00,,2013-04-21 07:21:00,
2013-04-21 02:31:00,46.0,44.0,30.16,ESE,118,0.0,0.0,93,0.00,,,0.00,,2013-04-21 07:31:00,
2013-04-21 02:42:00,46.0,44.0,30.16,ESE,118,0.0,0.0,93,0.00,,,0.00,,2013-04-21 07:42:00,
2013-04-21 02:52:00,46.0,44.0,30.16,ESE,117,0.0,0.0,94,0.00,,,0.00,,2013-04-21 07:52:00,
2013-04-21 03:01:00,46.0,44.0,30.16,ESE,117,0.0,0.0,94,0.00,,,0.00,,2013-04-21 08:01:00,
2013-04-21 03:12:00,46.0,44.0,30.16,ESE,117,0.0,0.0,94,0.00,,,0.00,,2013-04-21 08:12:00,
2013-04-21 03:21:00,46.0,44.0,30.15,ESE,117,0.0,0.0,94,0.00,,,0.00,,2013-04-21 08:21:00,
2013-04-21 03:32:00,45.0,43.0,30.15,ESE,117,0.0,0.0,94,0.00,,,0.00,,2013-04-21 08:32:00,
2013-04-21 03:41:00,45.0,43.0,30.15,ESE,117,0.0,0.0,94,0.00,,,0.00,,2013-04-21 08:41:00,
2013-04-21 03:52:00,45.0,43.0,30.15,ESE,117,0.0,0.0,94,0.00,,,0.00,,2013-04-21 08:52:00,
2013-04-21 04:01:00,45.0,43.0,30.14,ESE,117,0.0,0.0,94,0.00,,,0.00,,2013-04-21 09:01:00,
2013-04-21 04:12:00,45.0,43.0,30.14,ESE,117,0.0,0.0,94,0.00,,,0.00,,2013-04-21 09:12:00,
2013-04-21 04:21:00,45.0,44.0,30.12,ESE,118,0.0,0.0,95,0.00,,,0.00,,2013-04-21 09:21:00,
2013-04-21 04:32:00,46.0,45.0,30.12,ESE,117,0.0,0.0,96,0.00,,,0.00,,2013-04-21 09:32:00,
2013-04-21 04:43:00,46.0,45.0,30.12,ESE,117,0.0,0.0,96,0.00,,,0.00,,2013-04-21 09:43:00,
2013-04-21 04:53:00,46.0,45.0,30.12,ESE,117,0.0,0.0,96,0.00,,,0.00,,2013-04-21 09:53:00,
2013-04-21 05:02:00,46.0,45.0,30.12,ESE,117,0.0,0.0,96,0.00,,,0.00,,2013-04-21 10:02:00,
2013-04-21 05:12:00,46.0,45.0,30.12,ESE,117,0.0,0.0,96,0.00,,,0.00,,2013-04-21 10:12:00,
2013-04-21 05:22:00,46.0,45.0,30.12,ESE,117,0.0,0.0,96,0.00,,,0.00,,2013-04-21 10:22:00,
2013-04-21 05:32:00,46.0,46.0,30.14,ESE,117,0.0,0.0,100,0.00,,,0.00,,2013-04-21 10:32:00,
2013-04-21 05:42:00,46.0,46.0,30.14,ESE,117,0.0,0.0,100,0.00,,,0.00,,2013-04-21 10:42:00,
2013-04-21 05:52:00,46.0,45.0,30.16,ESE,117,0.0,0.0,96,0.00,,,0.00,,2013-04-21 10:52:00,
2013-04-21 06:02:00,46.0,45.0,30.16,ESE,117,0.0,0.0,96,0.00,,,0.00,,2013-04-21 11:02:00,
2013-04-21 06:12:00,46.0,45.0,30.16,ESE,117,0.0,0.0,96,0.00,,,0.00,,2013-04-21 11:12:00,
2013-04-21 06:22:00,46.0,45.0,30.17,ESE,117,0.0,0.0,96,0.00,,,0.00,,2013-04-21 11:22:00,
2013-04-21 06:34:00,46.0,45.0,30.17,ESE,117,0.0,1.0,96,0.00,,,0.00,,2013-04-21 11:34:00,
2013-04-21 06:42:00,46.0,45.0,30.17,ESE,117,0.0,1.0,96,0.00,,,0.00,,2013-04-21 11:42:00,
2013-04-21 06:52:00,46.0,45.0,30.17,ESE,117,0.0,0.0,96,0.00,,,0.00,,2013-04-21 11:52:00,
2013-04-21 07:02:00,46.0,45.0,30.18,ESE,117,0.0,0.0,96,0.00,,,0.00,,2013-04-21 12:02:00,
2013-04-21 07:12:00,46.0,45.0,30.18,ESE,117,0.0,0.0,96,0.00,,,0.00,,2013-04-21 12:12:00,
2013-04-21 07:22:00,46.0,45.0,30.19,ESE,117,0.0,0.0,96,0.00,,,0.00,,2013-04-21 12:22:00,
2013-04-21 07:32:00,46.0,45.0,30.19,ESE,117,0.0,0.0,97,0.00,,,0.00,,2013-04-21 12:32:00,
2013-04-21 07:42:00,46.0,45.0,30.19,ESE,117,0.0,0.0,97,0.00,,,0.00,,2013-04-21 12:42:00,
2013-04-21 07:52:00,46.0,45.0,30.20,ESE,117,0.0,0.0,97,0.00,,,0.00,,2013-04-21 12:52:00,
2013-04-21 08:01:00,46.0,45.0,30.20,ESE,117,0.0,1.0,97,0.00,,,0.00,,2013-04-21 13:01:00,
2013-04-21 08:11:00,46.0,45.0,30.20,ESE,117,0.0,1.0,97,0.00,,,0.00,,2013-04-21 13:11:00,
2013-04-21 08:21:00,47.0,46.0,30.20,ESE,117,0.0,1.0,97,0.00,,,0.00,,2013-04-21 13:21:00,
2013-04-21 08:32:00,48.0,47.0,30.20,ESE,117,0.0,1.0,97,0.00,,,0.00,,2013-04-21 13:32:00,
2013-04-21 08:42:00,48.0,47.0,30.20,ESE,117,0.0,1.0,97,0.00,,,0.00,,2013-04-21 13:42:00,
2013-04-21 08:52:00,49.0,48.0,30.20,ENE,76,0.0,1.0,98,0.00,,,0.00,,2013-04-21 13:52:00,
2013-04-21 09:02:00,50.0,49.0,30.21,ENE,76,0.0,1.0,98,0.00,,,0.00,,2013-04-21 14:02:00,
2013-04-21 09:11:00,50.0,49.0,30.21,ENE,76,0.0,1.0,98,0.00,,,0.00,,2013-04-21 14:11:00,
2013-04-21 09:21:00,52.0,51.0,30.21,ENE,58,0.0,1.0,98,0.00,,,0.00,,2013-04-21 14:21:00,
2013-04-21 09:32:00,53.0,52.0,30.21,ENE,58,0.0,1.0,98,0.00,,,0.00,,2013-04-21 14:32:00,
2013-04-21 09:42:00,53.0,52.0,30.21,ENE,58,0.0,1.0,98,0.00,,,0.00,,2013-04-21 14:42:00,
2013-04-21 09:52:00,56.0,55.0,30.21,NE,41,0.0,3.0,96,0.00,,,0.00,,2013-04-21 14:52:00,
2013-04-21 10:02:00,58.0,55.0,30.21,NE,42,0.0,3.0,89,0.00,,,0.00,,2013-04-21 15:02:00,
2013-04-21 10:11:00,58.0,55.0,30.21,NE,42,0.0,3.0,89,0.00,,,0.00,,2013-04-21 15:11:00,
2013-04-21 10:22:00,61.0,53.0,30.21,NNE,31,1.0,3.0,76,0.00,,,0.00,,2013-04-21 15:22:00,
2013-04-21 10:33:00,62.0,53.0,30.21,NE,48,1.0,4.0,73,0.00,,,0.00,,2013-04-21 15:33:00,
2013-04-21 10:42:00,62.0,53.0,30.21,NE,48,1.0,4.0,73,0.00,,,0.00,,2013-04-21 15:42:00,
2013-04-21 10:53:00,64.0,53.0,30.21,ENE,66,0.0,3.0,68,0.00,,,0.00,,2013-04-21 15:53:00,
2013-04-21 11:03:00,66.0,56.0,30.21,ENE,59,0.0,2.0,69,0.00,,,0.00,,2013-04-21 16:03:00,
2013-04-21 11:12:00,66.0,56.0,30.21,ENE,59,0.0,2.0,69,0.00,,,0.00,,2013-04-21 16:12:00,
2013-04-21 11:22:00,67.0,54.0,30.22,ENE,62,0.0,3.0,62,0.00,,,0.00,,2013-04-21 16:22:00,
2013-04-21 11:33:00,70.0,55.0,30.21,NNE,32,0.0,4.0,58,0.00,,,0.00,,2013-04-21 16:33:00,
2013-04-21 11:42:00,70.0,55.0,30.21,NNE,32,0.0,4.0,58,0.00,,,0.00,,2013-04-21 16:42:00,
2013-04-21 11:52:00,71.0,55.0,30.21,ENE,59,0.0,2.0,58,0.00,,,0.00,,2013-04-21 16:52:00,
2013-04-21 12:02:00,72.0,56.0,30.20,ENE,57,0.0,4.0,58,0.00,,,0.00,,2013-04-21 17:02:00,
2013-04-21 12:12:00,72.0,56.0,30.20,ENE,57,0.0,4.0,58,0.00,,,0.00,,2013-04-21 17:12:00,
2013-04-21 12:23:00,73.0,56.0,30.20,WSW,250,0.0,1.0,55,0.00,,,0.00,,2013-04-21 17:23:00,
2013-04-21 12:32:00,73.0,58.0,30.20,SSE,155,0.0,2.0,59,0.00,,,0.00,,2013-04-21 17:32:00,
2013-04-21 12:42:00,73.0,58.0,30.20,SSE,155,0.0,2.0,59,0.00,,,0.00,,2013-04-21 17:42:00,
2013-04-21 12:52:00,74.0,57.0,30.19,ESE,110,0.0,1.0,56,0.00,,,0.00,,2013-04-21 17:52:00,
2013-04-21 13:02:00,73.0,56.0,30.19,North,5,0.0,1.0,55,0.00,,,0.00,,2013-04-21 18:02:00,
2013-04-21 13:11:00,73.0,56.0,30.19,North,5,0.0,1.0,55,0.00,,,0.00,,2013-04-21 18:11:00,
2013-04-21 13:22:00,71.0,54.0,30.18,North,9,0.0,1.0,54,0.00,,,0.00,,2013-04-21 18:22:00,
2013-04-21 13:32:00,72.0,54.0,30.18,ESE,111,0.0,2.0,53,0.00,,,0.00,,2013-04-21 18:32:00,
2013-04-21 13:42:00,72.0,54.0,30.18,ESE,111,0.0,2.0,53,0.00,,,0.00,,2013-04-21 18:42:00,
2013-04-21 13:52:00,74.0,56.0,30.17,SW,217,0.0,1.0,54,0.00,,,0.00,,2013-04-21 18:52:00,
2013-04-21 14:02:00,74.0,55.0,30.17,ENE,61,0.0,3.0,51,0.00,,,0.00,,2013-04-21 19:02:00,
2013-04-21 14:12:00,74.0,55.0,30.17,ENE,61,0.0,3.0,51,0.00,,,0.00,,2013-04-21 19:12:00,
2013-04-21 14:21:00,76.0,56.0,30.16,ENE,63,1.0,2.0,50,0.00,,,0.00,,2013-04-21 19:21:00,
2013-04-21 14:32:00,77.0,57.0,30.16,SSE,155,0.0,1.0,51,0.00,,,0.00,,2013-04-21 19:32:00,
2013-04-21 14:42:00,77.0,57.0,30.16,SSE,155,0.0,1.0,51,0.00,,,0.00,,2013-04-21 19:42:00,
2013-04-21 14:52:00,77.0,55.0,30.15,West,259,0.0,1.0,47,0.00,,,0.00,,2013-04-21 19:52:00,
2013-04-21 15:02:00,75.0,55.0,30.14,West,259,0.0,1.0,49,0.00,,,0.00,,2013-04-21 20:02:00,
2013-04-21 15:11:00,75.0,55.0,30.14,West,259,0.0,1.0,49,0.00,,,0.00,,2013-04-21 20:11:00,
2013-04-21 15:22:00,77.0,57.0,30.14,ENE,57,0.0,2.0,50,0.00,,,0.00,,2013-04-21 20:22:00,
2013-04-21 15:32:00,77.0,54.0,30.13,NE,56,0.0,3.0,45,0.00,,,0.00,,2013-04-21 20:32:00,
2013-04-21 15:42:00,77.0,54.0,30.13,NE,56,0.0,3.0,45,0.00,,,0.00,,2013-04-21 20:42:00,
2013-04-21 15:52:00,77.0,55.0,30.12,North,350,0.0,3.0,47,0.00,,,0.00,,2013-04-21 20:52:00,
2013-04-21 16:02:00,77.0,56.0,30.11,SSE,163,1.0,4.0,48,0.00,,,0.00,,2013-04-21 21:02:00,
2013-04-21 16:12:00,77.0,56.0,30.11,SSE,163,1.0,4.0,48,0.00,,,0.00,,2013-04-21 21:12:00,
2013-04-21 16:21:00,78.0,57.0,30.11,ESE,106,1.0,1.0,49,0.00,,,0.00,,2013-04-21 21:21:00,
2013-04-21 16:33:00,77.0,56.0,30.11,ESE,112,0.0,1.0,49,0.00,,,0.00,,2013-04-21 21:33:00,
2013-04-21 16:43:00,77.0,56.0,30.11,ESE,112,0.0,1.0,49,0.00,,,0.00,,2013-04-21 21:43:00,
2013-04-21 16:53:00,75.0,58.0,30.10,ESE,112,0.0,1.0,55,0.00,,,0.00,,2013-04-21 21:53:00,
2013-04-21 17:02:00,74.0,55.0,30.10,ESE,121,0.0,1.0,52,0.00,,,0.00,,2013-04-21 22:02:00,
2013-04-21 17:12:00,74.0,55.0,30.10,ESE,121,0.0,1.0,52,0.00,,,0.00,,2013-04-21 22:12:00,
2013-04-21 17:22:00,74.0,56.0,30.10,East,98,0.0,1.0,54,0.00,,,0.00,,2013-04-21 22:22:00,
2013-04-21 17:33:00,73.0,57.0,30.10,East,98,0.0,0.0,58,0.00,,,0.00,,2013-04-21 22:33:00,
2013-04-21 17:43:00,73.0,57.0,30.10,East,98,0.0,0.0,58,0.00,,,0.00,,2013-04-21 22:43:00,
2013-04-21 17:52:00,72.0,58.0,30.10,East,98,0.0,0.0,61,0.00,,,0.00,,2013-04-21 22:52:00,
2013-04-21 18:02:00,72.0,57.0,30.09,SE,130,0.0,3.0,59,0.00,,,0.00,,2013-04-21 23:02:00,
2013-04-21 18:12:00,72.0,57.0,30.09,SE,130,0.0,3.0,59,0.00,,,0.00,,2013-04-21 23:12:00,
2013-04-21 18:22:00,71.0,56.0,30.09,SE,130,0.0,0.0,59,0.00,,,0.00,,2013-04-21 23:22:00,
2013-04-21 18:32:00,70.0,56.0,30.09,SE,130,0.0,0.0,61,0.00,,,0.00,,2013-04-21 23:32:00,
2013-04-21 18:42:00,70.0,56.0,30.09,SE,130,0.0,0.0,61,0.00,,,0.00,,2013-04-21 23:42:00,
2013-04-21 18:52:00,69.0,56.0,30.09,SE,130,0.0,0.0,64,0.00,,,0.00,,2013-04-21 23:52:00,
2013-04-21 19:01:00,69.0,56.0,30.09,SE,130,0.0,0.0,64,0.00,,,0.00,,2013-04-22 00:01:00,
2013-04-21 19:11:00,69.0,56.0,30.09,SE,130,0.0,0.0,64,0.00,,,0.00,,2013-04-22 00:11:00,
2013-04-21 19:21:00,68.0,56.0,30.09,SE,130,0.0,0.0,66,0.00,,,0.00,,2013-04-22 00:21:00,
2013-04-21 19:32:00,68.0,56.0,30.09,SE,130,0.0,0.0,66,0.00,,,0.00,,2013-04-22 00:32:00,
2013-04-21 19:42:00,68.0,56.0,30.09,SE,130,0.0,0.0,66,0.00,,,0.00,,2013-04-22 00:42:00,
2013-04-21 19:52:00,66.0,55.0,30.10,SE,130,0.0,0.0,68,0.00,,,0.00,,2013-04-22 00:52:00,
2013-04-21 20:01:00,66.0,56.0,30.10,SE,130,0.0,0.0,69,0.00,,,0.00,,2013-04-22 01:01:00,
2013-04-21 20:12:00,66.0,56.0,30.10,SE,130,0.0,0.0,69,0.00,,,0.00,,2013-04-22 01:12:00,
2013-04-21 20:21:00,65.0,55.0,30.11,SE,130,0.0,0.0,71,0.00,,,0.00,,2013-04-22 01:21:00,
2013-04-21 20:32:00,64.0,55.0,30.11,SE,130,0.0,0.0,72,0.00,,,0.00,,2013-04-22 01:32:00,
2013-04-21 20:41:00,64.0,55.0,30.11,SE,130,0.0,0.0,72,0.00,,,0.00,,2013-04-22 01:41:00,
2013-04-21 20:52:00,64.0,55.0,30.11,SE,130,0.0,0.0,73,0.00,,,0.00,,2013-04-22 01:52:00,
2013-04-21 21:02:00,62.0,55.0,30.12,SE,130,0.0,0.0,77,0.00,,,0.00,,2013-04-22 02:02:00,
2013-04-21 21:11:00,62.0,55.0,30.12,SE,130,0.0,0.0,77,0.00,,,0.00,,2013-04-22 02:11:00,
2013-04-21 21:21:00,61.0,55.0,30.12,SE,130,0.0,0.0,80,0.00,,,0.00,,2013-04-22 02:21:00,
2013-04-21 21:32:00,60.0,54.0,30.13,SE,130,0.0,0.0,82,0.00,,,0.00,,2013-04-22 02:32:00,
2013-04-21 21:42:00,60.0,54.0,30.13,SE,130,0.0,0.0,82,0.00,,,0.00,,2013-04-22 02:42:00,
2013-04-21 21:52:00,59.0,54.0,30.13,SE,130,0.0,0.0,85,0.00,,,0.00,,2013-04-22 02:52:00,
2013-04-21 22:02:00,59.0,54.0,30.13,SE,130,0.0,0.0,85,0.00,,,0.00,,2013-04-22 03:02:00,
2013-04-21 22:11:00,59.0,54.0,30.13,SE,130,0.0,0.0,85,0.00,,,0.00,,2013-04-22 03:11:00,
2013-04-21 22:22:00,58.0,54.0,30.14,SE,130,0.0,0.0,87,0.00,,,0.00,,2013-04-22 03:22:00,
2013-04-21 22:33:00,58.0,54.0,30.14,SE,130,0.0,0.0,87,0.00,,,0.00,,2013-04-22 03:33:00,
2013-04-21 22:43:00,58.0,54.0,30.14,SE,130,0.0,0.0,87,0.00,,,0.00,,2013-04-22 03:43:00,
2013-04-21 22:52:00,57.0,53.0,30.14,SE,130,0.0,0.0,88,0.00,,,0.00,,2013-04-22 03:52:00,
2013-04-21 23:02:00,57.0,53.0,30.14,SE,130,0.0,0.0,88,0.00,,,0.00,,2013-04-22 04:02:00,
2013-04-21 23:12:00,57.0,53.0,30.14,SE,130,0.0,0.0,88,0.00,,,0.00,,2013-04-22 04:12:00,
2013-04-21 23:23:00,56.0,53.0,30.14,SE,130,0.0,0.0,89,0.00,,,0.00,,2013-04-22 04:23:00,
2013-04-21 23:32:00,56.0,53.0,30.14,SE,130,0.0,0.0,90,0.00,,,0.00,,2013-04-22 04:32:00,
2013-04-21 23:43:00,56.0,53.0,30.14,SE,130,0.0,0.0,90,0.00,,,0.00,,2013-04-22 04:43:00,
2013-04-21 23:53:00,56.0,53.0,30.14,SE,130,0.0,0.0,90,0.00,,,0.00,,2013-04-22 04:53:00,